Goshen, IN

9:13 AM EDT on August 22, 2017 (GMT -0400)
Goshen Municipal

Weather History for KGSH - September, 2013

Change the Weather History Date:

Sunday, September 8, 2013

  Actual Average Record
Temperature  
Mean Temperature 70 °F -  
Max Temperature 79 °F 78 °F 96 °F (1960)
Min Temperature 62 °F 56 °F 37 °F (1986)
Cooling Degree Days 6    
Growing Degree Days 20 (Base 50)    
Moisture  
Dew Point 63 °F    
Average Humidity 78    
Maximum Humidity 94    
Minimum Humidity 56    
Precipitation  
Precipitation 0.00 in - - ()
Sea Level Pressure  
Sea Level Pressure 30.01 in    
Wind  
Wind Speed 5 mph (East)    
Max Wind Speed 13 mph    
Max Gust Speed 18 mph    
Visibility 7 miles    
Events      
Averages and records for this station are not official NWS values.
T = Trace of Precipitation, MM = Missing Value Source: NWS Daily Summary

Daily Weather History Graph

Daily Weather History Graph

Search for Another Location

Airport or City:

Trip Planner

Search our weather history database for the weather conditions in past years. The results will help you decide how hot, cold, wet, or windy it might be!

Date:

Astronomy

Sep. 08, 2013 Rise Set
Actual Time 7:16 AM EDT 8:04 PM EDT
Civil Twilight 6:48 AM EDT 8:32 PM EDT
Nautical Twilight 6:15 AM EDT 9:05 PM EDT
Astronomical Twilight 5:40 AM EDT 9:39 PM EDT
Moon 10:36 AM EDT (9/8) 9:35 PM EDT (9/8)
Length of Visible Light 13h 43m
Length of Day
12h 47m
Waxing Crescent, 11% of the Moon is Illuminated
Sep 8
Waxing Crescent
Sep 12
First Quarter
Sep 19
Full
Sep 26
Last Quarter
Oct 4
New

Hourly Weather History & Observations

Time (EDT) Temp. Dew Point Humidity Pressure Visibility Wind Dir Wind Speed Gust Speed Precip Events Conditions
12:53 AM 72.0 °F 66.0 °F 81% 29.94 in 10.0 mi Calm Calm - N/A   Overcast
1:53 AM 70.0 °F 66.0 °F 87% 29.95 in 8.0 mi Calm Calm - N/A   Mostly Cloudy
2:53 AM 66.9 °F 64.0 °F 90% 29.94 in 5.0 mi NE 4.6 mph - N/A   Clear
3:53 AM 64.9 °F 63.0 °F 93% 29.94 in 4.0 mi Calm Calm - N/A   Clear
4:53 AM 64.0 °F 62.1 °F 93% 29.95 in 4.0 mi Calm Calm - N/A   Clear
5:53 AM 63.0 °F 61.0 °F 93% 29.97 in 3.0 mi Calm Calm - N/A   Clear
6:18 AM 62.6 °F 60.8 °F 94% 29.99 in 2.5 mi Calm Calm - N/A   Clear
6:43 AM 62.6 °F 60.8 °F 94% 29.99 in 3.0 mi Calm Calm - N/A   Clear
6:53 AM 63.0 °F 61.0 °F 93% 29.98 in 3.0 mi ENE 3.5 mph - N/A   Clear
7:28 AM 64.4 °F 62.6 °F 94% 30.00 in 2.5 mi NE 5.8 mph - N/A   Clear
7:41 AM 66.2 °F 64.4 °F 94% 30.01 in 3.0 mi NE 6.9 mph - N/A   Partly Cloudy
7:49 AM 66.2 °F 64.4 °F 94% 30.01 in 2.5 mi ENE 9.2 mph - N/A   Mostly Cloudy
7:53 AM 66.9 °F 64.9 °F 93% 30.00 in 2.0 mi ENE 8.1 mph - N/A   Mostly Cloudy
8:02 AM 66.2 °F 64.4 °F 94% 30.02 in 1.5 mi ENE 6.9 mph - N/A   Mostly Cloudy
8:22 AM 68.0 °F 66.2 °F 94% 30.03 in 2.0 mi NE 6.9 mph - N/A   Overcast
8:44 AM 69.8 °F 66.2 °F 88% 30.02 in 3.0 mi ENE 8.1 mph - N/A   Overcast
8:53 AM 69.1 °F 64.9 °F 87% 30.01 in 4.0 mi ENE 11.5 mph - N/A   Overcast
9:44 AM 71.6 °F 64.4 °F 78% 30.04 in 8.0 mi East 10.4 mph 18.4 mph N/A   Overcast
9:53 AM 71.1 °F 64.9 °F 81% 30.03 in 9.0 mi ENE 11.5 mph - N/A   Overcast
10:53 AM 72.0 °F 64.9 °F 78% 30.03 in 10.0 mi East 10.4 mph - N/A   Overcast
11:41 AM 73.4 °F 64.4 °F 73% 30.05 in - East 11.5 mph - N/A   Overcast
11:53 AM 75.0 °F 64.0 °F 69% 30.04 in 10.0 mi ENE 12.7 mph - N/A   Overcast
12:53 PM 75.9 °F 64.0 °F 67% 30.04 in 10.0 mi ENE 11.5 mph - N/A   Overcast
1:53 PM 75.0 °F 64.0 °F 69% 30.04 in 10.0 mi ENE 10.4 mph - N/A   Overcast
2:53 PM 75.0 °F 63.0 °F 66% 30.04 in 10.0 mi East 12.7 mph - N/A   Overcast
3:36 PM 75.2 °F 62.6 °F 65% 30.04 in 10.0 mi East 11.5 mph - N/A   Overcast
3:53 PM 75.9 °F 63.0 °F 64% 30.03 in 10.0 mi East 9.2 mph - N/A   Overcast
4:06 PM 77.0 °F 62.6 °F 61% 30.04 in 10.0 mi East 11.5 mph - N/A   Overcast
4:35 PM 78.8 °F 62.6 °F 57% 30.02 in 10.0 mi East 11.5 mph - N/A   Mostly Cloudy
4:53 PM 79.0 °F 62.1 °F 56% 30.01 in 10.0 mi East 11.5 mph - N/A   Scattered Clouds
5:09 PM 78.8 °F 62.6 °F 57% 30.02 in 10.0 mi ESE 10.4 mph - N/A   Mostly Cloudy
5:49 PM 78.8 °F 62.6 °F 57% 30.01 in 8.0 mi ESE 9.2 mph - N/A   Scattered Clouds
5:53 PM 79.0 °F 62.1 °F 56% 30.00 in 8.0 mi ESE 8.1 mph - N/A   Scattered Clouds
6:53 PM 77.0 °F 63.0 °F 62% 30.01 in 7.0 mi East 6.9 mph - N/A   Scattered Clouds
7:53 PM 72.0 °F 63.0 °F 73% 30.00 in 6.0 mi East 4.6 mph - N/A   Haze
8:53 PM 71.1 °F 63.0 °F 75% 30.01 in 8.0 mi ESE 5.8 mph - N/A   Clear
9:53 PM 69.1 °F 62.1 °F 78% 30.01 in 10.0 mi ESE 6.9 mph - N/A   Clear
10:53 PM 69.1 °F 61.0 °F 75% 30.01 in 10.0 mi ESE 8.1 mph - N/A   Clear
11:53 PM 66.9 °F 61.0 °F 81% 30.02 in 10.0 mi SE 9.2 mph - N/A   Clear